This demonstration page uses our WeatherBlox Daily Observations layout. Learn more.

Hourly Observations for January 5, 2017

Temp ( °F °C ) Dew Point ( °F °C ) Humidity (%) Winds ( mph kmh ) Pressure ( in mb ) Visibility ( mi km ) Precip ( " mm )
12:08 am 00:08 Partly Cloudy 7 -14 5 -15 92 92 NW 3 6 30.36 1028 10 16.0934 0 0
12:54 am 00:54 Clear with Mist and Fog 4 -15.6 2 -16.7 91 91 WNW 5 7 30.28 1025 5 8.0467 0 0
1:54 am 01:54 Clear 1 -17.2 -1 -18.3 91 91 NNW 3 6 30.26 1025 10 16.0934 0 0
2:18 am 02:18 Clear with Mist and Fog 3 -16 0 -18 85 85 Calm 30.33 1027 2.5 4.02335 0 0
2:26 am 02:26 Clear 3 -16 0 -18 85 85 NW 5 7 30.33 1027 7 11.26538 0 0
2:54 am 02:54 Clear 4 -15.6 2 -16.7 91 91 WNW 5 7 30.26 1025 10 16.0934 0 0
3:54 am 03:54 Clear 7 -13.9 3 -16.1 84 84 WNW 5 7 30.24 1024 10 16.0934 0 0
4:54 am 04:54 Clear 7 -13.9 3 -16.1 84 84 NNW 6 9 30.24 1024 10 16.0934 0 0
5:54 am 05:54 Clear 8 -13.3 2 -16.7 76 76 NW 8 13 30.25 1024 10 16.0934 0 0
6:54 am 06:54 Clear 8 -13.3 0 -17.8 69 69 NNW 12 19 30.27 1025 10 16.0934 0 0
7:54 am 07:54 Sunny 7 -13.9 -1 -18.3 70 70 NNW 8 13 30.29 1026 10 16.0934 0 0
8:54 am 08:54 Sunny 6 -14.4 -2 -18.9 69 69 NW 9 15 30.31 1026 10 16.0934 0 0
9:54 am 09:54 Sunny 7 -13.9 -2 -18.9 66 66 NW 13 20 30.3 1026 10 16.0934 0 0
10:54 am 10:54 Sunny 9 -12.8 -2 -18.9 61 61 NNW 16 26 30.3 1026 10 16.0934 0 0
11:54 am 11:54 Sunny 10 -12.2 -1 -18.3 61 61 NNW 13 20 30.29 1026 10 16.0934 0 0
12:54 pm 12:54 Sunny 11 -11.7 0 -17.8 61 61 NW 13 20 30.28 1025 10 16.0934 0 0
1:54 pm 13:54 Mostly Cloudy 12 -11.1 1 -17.2 61 61 NNW 15 24 30.27 1025 10 16.0934 0 0
2:08 pm 14:08 Mostly Cloudy 11 -11.7 1 -17.2 64 64 NNW 17 28 30.3 1026 10 16.0934 0 0
2:54 pm 14:54 Mostly Cloudy 11 -11.7 0 -17.8 61 61 NNW 16 26 30.28 1025 10 16.0934 0 0
3:10 pm 15:10 Cloudy 10 -12.2 1 -17.2 67 67 NNW 15 24 30.36 1028 9 14.48406 0.001 0.001
3:46 pm 15:46 Cloudy 11 -11.7 1 -17.2 64 64 NW 14 22 30.36 1028 10 16.0934 0.001 0.001
3:54 pm 15:54 Cloudy 12 -11.1 1 -17.2 61 61 NW 12 19 30.29 1026 10 16.0934 0.001 0.001
4:54 pm 16:54 Cloudy 10 -12.2 1 -17.2 67 67 NNW 9 15 30.29 1026 8 12.87472 0.001 0.001
5:54 pm 17:54 Mostly Cloudy 9 -12.8 2 -16.7 73 73 NNW 7 11 30.31 1027 10 16.0934 0.001 0.001
6:54 pm 18:54 Clear 6 -14.4 -1 -18.3 73 73 NW 7 11 30.32 1027 10 16.0934 0 0
7:54 pm 19:54 Clear 4 -15.6 -2 -18.9 76 76 WNW 7 11 30.32 1027 10 16.0934 0 0
8:54 pm 20:54 Clear 2 -16.7 -4 -20 76 76 W 7 11 30.34 1028 10 16.0934 0 0
9:54 pm 21:54 Clear 2 -16.7 -4 -20 76 76 NW 8 13 30.33 1027 10 16.0934 0 0
10:54 pm 22:54 Clear -4 -20 -9 -22.8 79 79 Calm 30.33 1027 10 16.0934 0 0
11:54 pm 23:54 Clear -1 -18.3 -7 -21.7 75 75 WSW 5 7 30.35 1028 10 16.0934 0 0

Powered by AerisWeather